Location: Austin
(30.3000°N, 97.7500°W)
Time: 06:03:10
(UTC-06:00)

Timation 2 Rocket - Pass Details

Date: 03 March 2026
Orbit: 907 x 1072 km, 70.0° (Epoch: 6 March)

Event Time Altitude Azimuth Distance (km) Brightness Sun altitude
Rises 19:43:49 0° 191° (S) 3,679 7.1 -16.4°
Reaches altitude 10° 19:46:26 10° 188° (S) 2,709 6.4 -17.0°
Maximum altitude 19:52:38 65° 108° (ESE) 1,035 3.9 -18.3°
Drops below altitude 10° 19:58:37 10° 28° (NNE) 2,624 6.0 -19.6°
Sets 20:01:07 0° 25° (NNE) 3,556 6.7 -20.1°
